This is the latest recevied weather packets stored in our database for station/object KM4NDN. If no packets are shown the sender has not sent any weather packets the latest 10 day(s).
| Time | Temp. | Humidity | Pressure | Rain* | Wind** | Luminosity | Snow |
|---|---|---|---|---|---|---|---|
| 1777387882 | 17.78° C | 84% | 1009 hPa | 0 mm | - | 215 W/m² | - |
| 1777387579 | 17.22° C | 84% | 1009.1 hPa | 0 mm | - | 734 W/m² | - |
| 1777387274 | 17.22° C | 85% | 1009 hPa | 0 mm | - | 504 W/m² | - |
| 1777386969 | 16.67° C | 87% | 1008.9 hPa | 0 mm | - | 343 W/m² | - |
| 1777386667 | 16.67° C | 86% | 1008.9 hPa | 0 mm | - | 237 W/m² | - |
| 1777386364 | 16.67° C | 87% | 1008.8 hPa | 0 mm | - | 350 W/m² | - |
| 1777386061 | 15.56° C | 89% | 1008.9 hPa | 0 mm | - | 571 W/m² | - |
| 1777385757 | 15.56° C | 90% | 1009 hPa | 0 mm | - | 228 W/m² | - |
| 1777385455 | 15° C | 90% | 1009 hPa | 0 mm | - | 225 W/m² | - |
| 1777385150 | 15.56° C | 89% | 1009 hPa | 0 mm | - | 148 W/m² | - |
| 1777384847 | 15.56° C | 89% | 1009.1 hPa | 0 mm | - | 175 W/m² | - |
| 1777384544 | 15° C | 89% | 1009 hPa | 0 mm | - | 205 W/m² | - |
| 1777384239 | 15° C | 89% | 1008.7 hPa | 0 mm | - | 164 W/m² | - |
| 1777383935 | 15° C | 88% | 1008.9 hPa | 0 mm | - | 89 W/m² | - |
| 1777383631 | 15° C | 88% | 1008.8 hPa | 0 mm | - | 126 W/m² | - |
| 1777383328 | 15° C | 87% | 1008.8 hPa | 0 mm | - | 109 W/m² | - |
| 1777383024 | 15° C | 87% | 1008.8 hPa | 0 mm | - | 87 W/m² | - |
| 1777382721 | 15° C | 87% | 1008.7 hPa | 0 mm | - | 133 W/m² | - |
| 1777382416 | 15° C | 87% | 1008.7 hPa | 0 mm | - | 107 W/m² | - |
| 1777382113 | 15° C | 87% | 1008.5 hPa | 0 mm | - | 96 W/m² | - |
| 1777381810 | 15° C | 86% | 1008.6 hPa | 0 mm | - | 66 W/m² | - |
| 1777381508 | 15° C | 86% | 1008.3 hPa | 0 mm | - | 73 W/m² | - |
| 1777381205 | 15° C | 85% | 1008.4 hPa | 0 mm | - | 88 W/m² | - |
| 1777380902 | 15° C | 85% | 1008.4 hPa | 0 mm | - | 108 W/m² | - |
| 1777380599 | 15.56° C | 84% | 1008.3 hPa | 0 mm | - | 130 W/m² | - |
* Rain latest hour (hover to see other rain measurements)
** Current wind speed in m/s (hover to see current wind gust speed)